Home > Weather > Vejle > Past weeks

Flag for Denmark Past Weather in Vejle, Denmark — Yesterday and Last 2 Weeks

Now
63 °F

Partly sunny.


Feels Like: 63 °F
Forecast: 54 / 66 °F
Wind: 6 mph from Northeast

Location: Billund Lufthavn

Current Time: Jun 25, 2016 at 10:46:34 AM

Latest Report: Jun 25, 2016 at 10:20 AM


Visibility: N/A

Pressure: 30.01 "Hg

Humidity: 83%

Dew Point: 57 °F

Location of VejleLocation

Past Weather in Vejle — Graph

°F

Vejle Temperature Yesterday

Maximum temperature yesterday: 77 °F (at 2:50 PM)
Minimum temperature yesterday: 57 °F (at 12:50 AM)
Average temperature yesterday: 67 °F

High & Low Weather Summary for the Past Weeks

 TemperatureHumidityPressure
High77 °F (Jun 24, 2:50 PM)100% (Jun 15, 12:50 AM)30.21 "Hg (Jun 15, 12:50 AM)
Low41 °F (Jun 11, 5:50 AM)34% (Jun 12, 11:50 AM)29.45 "Hg (Jun 15, 5:20 AM)
Average59 °F78%29.85 "Hg
* Reported Jun 10 9:20 AM — Jun 25 9:20 AM, Vejle, Weather by CustomWeather, © 2016

Note: Actual official high and low records may vary slightly from our data, if they occured in-between our weather recording intervals... More about our weather records

Advertising

Vejle Weather History for the Previous 24 Hours

Scroll right to see more
 ConditionsComfort  
Time TempWeatherWind HumidityBarometerVisibility
9:20 AM
Sat, Jun 25
61 °FPartly sunny.3 mph83%30.04 "HgN/A
8:53 AM59 °FPartly sunny.3 mph88%30.04 "HgN/A
8:20 AM59 °FLow clouds.2 mph88%30.04 "HgN/A
7:50 AM59 °FOvercast.6 mph88%30.04 "HgN/A
7:20 AM59 °FLow clouds.7 mph88%30.04 "HgN/A
6:50 AM57 °FLow clouds.5 mph94%30.04 "HgN/A
6:20 AM57 °FLow clouds.2 mph94%30.04 "HgN/A
5:50 AM57 °FLow clouds.2 mph94%30.04 "HgN/A
5:20 AM57 °FLow clouds.6 mph94%30.04 "Hg4 mi
4:50 AM57 °FLow clouds.5 mph94%30.04 "Hg4 mi
4:20 AM57 °FLow clouds.7 mph100%30.04 "Hg4 mi
3:50 AM59 °FLow clouds.3 mph94%30.04 "HgN/A
3:20 AM59 °FLow clouds.2 mph94%30.07 "Hg4 mi
2:50 AM59 °FLow clouds.3 mph94%30.04 "Hg4 mi
2:20 AM59 °FLow clouds.5 mph94%30.04 "Hg6 mi
1:50 AM59 °FLow clouds.7 mph94%30.04 "Hg6 mi
1:20 AM59 °FLow clouds.9 mph100%30.04 "HgN/A
12:50 AM61 °FLow clouds.7 mph94%30.04 "HgN/A
12:20 AM61 °FLow clouds.8 mph94%30.04 "HgN/A
11:50 PM
Fri, Jun 24
63 °FOvercast.6 mph88%30.07 "HgN/A
11:20 PM63 °FOvercast.7 mph88%30.04 "HgN/A
10:50 PM63 °FOvercast.6 mph88%30.07 "HgN/A
10:20 PM63 °FLow clouds.6 mph94%30.04 "HgN/A
9:50 PM63 °FLow clouds.5 mph94%30.04 "HgN/A
9:20 PM63 °FLow clouds.6 mph94%30.04 "Hg6 mi
8:50 PM63 °FLow clouds.5 mph94%30.04 "HgN/A
8:20 PM64 °FPartly sunny.6 mph88%30.04 "HgN/A
7:50 PM63 °FBroken clouds.8 mph94%30.04 "Hg6 mi
7:20 PM63 °FBroken clouds.13 mph94%30.04 "HgN/A
6:54 PM64 °FSprinkles. Broken clouds.12 mph88%30.01 "HgN/A
6:20 PM68 °FScattered clouds.9 mph78%30.01 "HgN/A
5:50 PM70 °FPartly sunny.13 mph78%30.01 "HgN/A
5:20 PM72 °FScattered clouds.10 mph73%30.01 "HgN/A
4:50 PM72 °FScattered clouds.13 mph73%30.01 "HgN/A
4:20 PM73 °FPartly sunny.12 mph69%30.01 "HgN/A
3:50 PM73 °FScattered clouds.15 mph69%30.01 "HgN/A
3:20 PM75 °FScattered clouds.13 mph65%29.98 "HgN/A
2:50 PM77 °FScattered clouds.14 mph65%29.98 "HgN/A
2:20 PM75 °FPartly sunny.14 mph65%29.98 "HgN/A
1:50 PM75 °FPartly sunny.14 mph69%29.98 "HgN/A
1:20 PM75 °FPartly sunny.10 mph69%29.98 "HgN/A
12:50 PM75 °FPartly sunny.9 mph74%29.98 "HgN/A
12:20 PM75 °FPartly sunny.9 mph69%29.98 "HgN/A
11:50 AM73 °FPartly sunny.7 mph78%29.98 "HgN/A
11:20 AM72 °FPartly sunny.6 mph83%29.98 "HgN/A
10:50 AM70 °FOvercast.9 mph88%29.98 "HgN/A
10:20 AM70 °FOvercast.10 mph83%29.98 "HgN/A
Weather by CustomWeather, © 2016

See weather overviewHow to use our weather pages